Simultaneous Nadir Overpasses (SNOs) Predictions

Prediction of SNOs between GOES-17 and NOAA-19 Satellite Orbit:

Table of predicted SNOs for the next 14.0 days since TLE Epoch: 11/9/2019
Index Date Time (GOES-17) GOES-17 Lat,Lon NOAA-19 Lat,Lon Distance(km) Time Diff (sec)
1 11/09/2019 14:31:43 -0.00,-137.22 0.14,-137.77 63.39 80
2 11/10/2019 14:20:04 -0.00,-137.22 -0.54,-134.93 261.34 80
3 11/13/2019 02:38:30 0.00,-137.20 -0.65,-139.92 310.77 80
4 11/14/2019 02:29:32 0.00,-137.19 0.05,-137.08 13.57 80
5 11/15/2019 02:17:52 0.00,-137.18 0.69,-134.23 337.26 80
6 11/17/2019 14:36:16 -0.00,-137.16 0.49,-139.21 234.18 80
7 11/18/2019 14:27:18 -0.00,-137.14 -0.20,-136.37 88.90 80
8 11/19/2019 14:15:38 -0.00,-137.13 -0.82,-133.52 411.82 80
9 11/21/2019 02:45:41 0.00,-137.09 -1.01,-141.34 486.35 80
10 11/22/2019 02:34:03 0.00,-137.07 -0.31,-138.50 163.58 80




NCC Satellite Simultaneous Nadir Overpasses (SNOs) Prediction Service
